Regional Weather Roundup
Issued by NWS Wakefield, VA

Home | Current Version | Previous Version | Graphics & Text | Print | Product List | Glossary On
Versions: 1 2 3 4 5 6 7 8 9 10 11 12 13 14 15 16 17 18 19 20 21 22 23 24 25 26 27 28 29 30 31 32 33 34 35 36 37 38 39 40 41 42 43 44 45 46 47 48 49 50
351
ASUS41 KAKQ 280215
RWRAKQ

REGIONAL WEATHER ROUNDUP
NATIONAL WEATHER SERVICE WAKEFIELD VA
1000 PM EDT FRI MAY 27 2016

Note: "fair" indicates few or no clouds below 12,000 feet with no
significant weather and/or obstructions to visibility. * = Denotes
station may not report precipitation (e.g., rain,snow,etc.),
thunder or fog.

VAZ042-051-052>054-056-280300-
NORTHERN VIRGINIA

CITY           SKY/WX    TMP DP  RH WIND       PRES   REMARKS
WASH NATIONAL  FAIR      77  69  76 S7        30.08R
DULLES         MOCLDY    80  67  64 S5        30.08R
FORT BELVOIR   FAIR      74  70  86 CALM      30.08R
QUANTICO       FAIR      77  68  73 SW7       30.08R
FREDERICKSBRG* FAIR      77  69  75 S6        30.07R
STAFFORD*      FAIR      75  67  74 CALM      30.12R
WARRENTON      MOCLDY    78  64  62 CALM      30.08R
CULPEPER*      CLOUDY    75  71  87 CALM      30.09R
MANASSAS*      PTCLDY    77  70  78 CALM      30.08R
LEESBURG*      FAIR      79  70  73 CALM      30.09R
WINCHESTER     FAIR      70  66  88 CALM      30.10R
FRONT ROYAL*   FAIR      68  68 100 CALM      30.09R
LURAY*         FAIR      70  68  94 CALM      30.11R
$$

VAZ048-049-060>072-079>083-280300-
CENTRAL AND SOUTH CENTRAL VIRGINIA

CITY           SKY/WX    TMP DP  RH WIND       PRES   REMARKS
RICHMOND       FAIR      75  65  70 S9        30.11R
CHESTERFIELD*  FAIR      73  57  56 S6        30.12R
PETERSBURG*    FAIR      76  65  67 S5        30.12R
HANOVER        FAIR      76  64  66 VRB3      30.11R
TAPPAHANNOCK*  FAIR      76  67  73 SE3       30.11R
QUINTON*       FAIR      77  67  70 CALM      30.11R
CHARLOTTSVILLE MOCLDY    78  67  68 S7        30.09R
GORDONSVILLE*  FAIR      73  69  88 CALM      30.09R
ORANGE*        FAIR      75  68  78 CALM      30.11R
LOUISA*        FAIR      81  70  69 S3        30.08S
BUMPASS*       FAIR      74  67  78 CALM      30.09S
FARMVILLE*     FAIR      75  66  72 S3        30.09R
CREWE*         FAIR      69  69 100 CALM      30.10R
FORT PICKETT*  NOT AVBL
CHASE CITY*    FAIR      71  70  95 CALM      30.12R
CLARKSVILLE*   FAIR      73  64  73 CALM      30.10R
SOUTH HILL*    FAIR      73  66  78 SE5       30.17R
LAWRENCEVILLE* FAIR      73  63  69 SE5       30.12R
EMPORIA*       FAIR      70  59  68 SE5       30.14R
$$

VAZ088>098-280300-
SOUTHEAST VIRGINIA

CITY           SKY/WX    TMP DP  RH WIND       PRES   REMARKS
NORFOLK        FAIR      74  62  66 S10       30.14R
VIRGINIA BEACH FAIR      75  63  66 S10       30.14R
NORFOLK NAVAL  FAIR      75  62  64 S7        30.15R
WEST POINT*    FAIR      76  62  61 SE9       30.13R
SALUDA*        FAIR      74  64  70 S9        30.12R
NEWPORT NEWS   FAIR      77  59  53 S13       30.13R
LANGLEY AFB    FAIR      75  61  62 S10       30.14R
FORT EUSTIS    FAIR      76  62  61 S7        30.12R
WILLIAMSBURG*  FAIR      77  63  61 S7        30.14R
HR EXEC AP*    FAIR      72  57  60 S5        30.16R
FRANKLIN*      FAIR      71  53  52 S7        30.14R
US460-WAKEFLD  FAIR      74  56  53 CALM      30.13R
$$

VAZ020-022-025-037-045-280300-
WEST CENTRAL AND SOUTHWEST VIRGINIA

CITY           SKY/WX    TMP DP  RH WIND       PRES   REMARKS
STAUNTON*      HVY RAIN  68  65  90 S5        30.16R
WAYNESBORO*    FAIR      68  66  93 SW3       30.15R
HOT SPRINGS VA MOCLDY    67  63  84 SE6       30.24R
LYNCHBURG      FAIR      74  65  73 S6        30.13R
DANVILLE       FAIR      73  65  75 S3        30.11R
SOUTH BOSTON*  FAIR      71  70  95 CALM      30.11R
MARTINSVILLE   FAIR      65  63  92 CALM      30.15R
ROANOKE        FAIR      74  65  73 SE5       30.14R
BLACKSBURG     FAIR      72  64  76 CALM      30.20R
DUBLIN*        FAIR      71  64  81 SW3       30.17S
MARION*        FAIR      67  63  85 CALM      30.20R
HILLSVILLE*    FAIR      67  63  85 SE5       30.19R
RICHLANDS*     FAIR      70  68  96 CALM      30.17R
WISE*          CLOUDY    66  63  88 CALM      30.17R
ABINGDON*      MOCLDY    68  67  98 CALM      30.15R
$$

MDZ021>025-VAZ099-100-280300-
SOUTHERN MARYLAND AND THE DELMARVA PENINSULA

CITY           SKY/WX    TMP DP  RH WIND       PRES   REMARKS
PATUXENT RIVER PTCLDY    74  60  61 S9        30.10R
BAY BRIDGE APT CLEAR     75  63  64 S13G18    30.09R
LEONARDTOWN    CLEAR     72  61  68 SE6       30.12R
DOVER          CLEAR     75  64  68 S10       30.09R
GEORGETOWN     CLEAR     72  56  57 S12       30.12R
EASTON         CLEAR     76  64  65 S10       30.14R
CAMBRIDGE      CLEAR     72  61  68 S9        30.11R
SALISBURY      CLEAR     71  57  61 S10       30.13R
OCEAN CITY     CLEAR     71  60  68 SW17G24   30.14R
WALLOPS ISLAND FAIR      69  61  75 S16G24    30.15R
ACCOMACK*      FAIR      72  59  64 CALM      30.14S
$$

NCZ012>017-030>032-280300-
NORTH CENTRAL AND EASTERN NORTH CAROLINA

CITY           SKY/WX    TMP DP  RH WIND       PRES   REMARKS
ROANOKE RAPIDS FAIR      72  59  64 CALM      30.13R
RALEIGH        PTCLDY    76  57  51 S8        30.12R
ELIZABETH CITY CLEAR     71  63  75 S7        30.16R
AHOSKIE*       CLEAR     69  59  70 SE6       30.14R
EDENTON*       CLEAR    N/A N/A N/A SE6       30.16R
CURRITUCK*     CLEAR     71  63  75 CALM      30.17R
KILL DEVIL HLS CLEAR     68  60  75 SE3       30.17R
MANTEO         NOT AVBL
CAPE HATTERAS  CLEAR     74  65  73 SE7       30.17R
TARBORO*       FAIR      71  61  70 SE3       30.14R
GOLDSBORO      CLEAR     72  59  63 VRB3      30.13R
WASHINGTON     CLEAR     71  62  72 SE6       30.15R
GREENVILLE     CLEAR     72  59  64 S3        30.15R
NEW BERN       CLEAR     66  59  78 CALM      30.16R
WILMINGTON     CLOUDY    72  66  81 E3        30.13R
$$

VAZ048-280300-
ELSEWHERE

CITY           SKY/WX    TMP DP  RH WIND       PRES   REMARKS
HARRISBURG PA  MOCLDY    73  68  84 W5        30.05R
BALTIMORE      CLOUDY    74  65  73 SE5       30.07R
ANNAPOLIS      CLEAR     72  63  73 S12       30.08R
ANDREWS AFB    FAIR      76  68  76 S9        30.08R
PHILADELPHIA   MOCLDY    78  65  63 S8        30.09R
HENDERSON NC   CLEAR     73  60  63 SE6       30.12R
GREENSBORO     CLEAR     75  64  68 CALM      30.11R
ROCKY MOUNT    CLEAR     73  58  59 S3        30.13R
$$

VAZ100-280300-
MARINE

STATION/POSITION TIME  TEMP    WIND        PRES    WAVE   SWELL
                       AIR SEA DIR/SP/G            HT/PER HT/PER
                 (UTC) (F)     (DEG/KT/KT) (MB)    (FT/S) (FT/S)
BRANDYWINE LGT   0100          200/ 13/ 15 1019.1R
CAPE MAY NJ      0100          170/ 11/ 16 1019.1R
LEWES DE         0100          190/  9/ 14 1019.3R
15NM E FENWICK I 0150   65 60              1020.3R   3/ 4
OCEAN-CITY-INLET 0100          220/ 12/ 14 1020.5R
WACHAPREAGUE VA  0100          190/ 12/ 16 1020.0R
THOMAS POINT MD  0200   72 67  170/ 22/ 25 1019.7R
GOOSES REEF MD   0200   70 65  170/ 14/ 16 1020.1R   2/ 3
COVE POINT MD    0100          190/ 17/ 19 1019.2R
SOLOMONS ISLAND  0100          180/ 13/ 15   N/A
BISHOPS HEAD MD  0100          170/ 16/ 19 1019.3R
PINEY POINT MD   0100          170/  9/ 11   N/A
POTOMAC MD       0200   71 68  190/ 16/ 17 1018.8R   2/ 3
CAMBRIDGE MD     0100          180/  8/ 12 1018.2R
LEWISETTA VA     0100          190/ 11/ 13 1018.6R
RAPPAHANNOCK LGT 0100          150/ 17/ 19 1020.5R
STINGRAY PT      0200   69 66  180/ 14/ 16 1020.5R   2/ 3
YORK RVR RNG VA  0100          160/ 16/ 18 1018.9R
YORKTOWN VA      0100          170/ 11/ 15 1019.1R
JAMESTOWN VA     0200   77 73  160/ 10/ 12   N/A     1
DOMINION TERM VA 0100          160/ 11/ 14 1019.8R
KIPTOPEKE VA     0100          170/ 17/ 21   N/A
CHES BAY BRIDGE  0100          150/ 11/ 13 1020.1R
CAPE HENRY VA    0100          160/ 10/ 13   N/A
CHESAPEAKE LGHT  0100   71     160/ 19/ 20 1020.9R
WILLOUBY STN VA  0100          170/ 13/ 16 1020.8R
CAPE HENRY BUOY  0112      68                N/A     2/ 8
1ST LANDING BUOY 0200   71 69  150/ 10/ 12 1020.8R   1/ 3
CAPE CHARLES BUO 0126      68                N/A     2/ 8   2/ 8
OFFSHORE WE BUOY 0121      66                N/A     2/ 7   2/ 7
64NM E OF VA BCH 0150   66 63  170/  6/  6 1021.6R   2/ 7   2/ 7
DUCK PIER NC     0100          150/  9/ 10 1020.3R
44100 DUCK FRF   0124      66                N/A     2/ 8
44056 DUCK FRF   0111      64                N/A     1/ 8
OREGON INLET NC  0100          140/  4/  5 1021.1R
HATTERAS NC      0100          140/  5/  7 1020.6R
DIAMOND SHLS NC  0150   76 78  140/ 10/ 10 1021.2R   3/ 8   2/ 8
CAPEC1F1C2F2C3F3C4F4C5F5C6F6C7F7C8M1C9!



USA.gov is the U.S. government's official web portal to all federal, state and local government web resources and services.